KAITUO 1B
1 40912U 15049P   18047.23691149  .00000855  00000-0  44685-4 0  9999
2 40912  97.4507  56.2944 0017304  73.7538 347.1749 15.18441205133315
TIANWANG 1C (TW-1C)
1 40926U 15051B   18047.53129193  .00006183  00000-0  12386-3 0  9997
2 40926  97.2000  90.4993 0010790  10.2050 126.9467 15.47040406134644
TIANWANG 1B (TW-1B)
1 40927U 15051C   18047.52308194  .00006035  00000-0  12590-3 0  9990
2 40927  97.2093  90.3897 0011139  21.1988 117.8336 15.45857287134564
TIANWANG 1A (TW-1A)
1 40928U 15051D   18046.82773676  .00002562  00000-0  70600-4 0  9992
2 40928  97.2008  83.1734 0013894  45.0518  40.2776 15.37957667134128
LAPAN A2
1 40931U 15052B   18046.20741897  .00000607  00000-0 -45790-5 0  9991
2 40931   5.9993 299.8917 0013052  80.4241 279.7361 14.76564136128941
LQSAT
1 40958U 15057A   18046.84511724  .00000004  00000-0  84033-5 0  9992
2 40958  97.9531 122.5880 0018512  11.1597 349.0010 14.73015394126989
CHUBUSAT 2
1 41338U 16012B   18047.19888635  .00000422  00000-0  26328-4 0  9990
2 41338  31.0046   2.3085 0013851 314.8034  45.1474 14.99919642109654
CHUBUSAT 3
1 41339U 16012C   18047.29446517  .00000346  00000-0  20295-4 0  9993
2 41339  31.0108   0.4694 0013646 322.4031  37.5656 15.00111088109651
OUFTI-1
1 41458U 16025C   18047.19021518  .00000520  00000-0  31774-4 0  9996
2 41458  98.1511 103.5093 0170957 192.7339 166.9555 15.04237656 99243
E-STAR-2
1 41459U 16025D   18046.71103096  .00001000  00000-0  56950-4 0  9993
2 41459  98.1508 102.8888 0171707 195.0782 164.5289 15.03995439 99164
AAUSAT 4
1 41460U 16025E   18047.06499256  .00001229  00000-0  68177-4 0  9997
2 41460  98.1475 103.5883 0163873 190.4543 169.3267 15.05282875 99266
NUSAT 1
1 41557U 16033B   18046.76688728  .00001608  00000-0  61542-4 0  9993
2 41557  97.4439 131.1882 0012827 221.9320 138.0938 15.27992222 95617
BEESAT 4
1 41619U 16040W   18046.89575193 +.00001593 +00000-0 +73320-4 0  9995
2 41619 097.4312 111.6505 0010233 299.3219 060.6994 15.21743271079645
PRATHAM
1 41783U 16059A   18047.14214970  .00000057  00000-0  20429-4 0  9995
2 41783  98.1344 110.5604 0034847 114.9668 245.5160 14.62900360 74265
ALSAT 1N
1 41789U 16059G   18047.40610547  .00000080  00000-0  24287-4 0  9992
2 41789  98.1349 111.8003 0029807 106.5651 253.8833 14.64126932 74347
NAYIF 1
1 42017U 17008BX  18046.90926605 +.00001720 +00000-0 +73890-4 0  9997
2 42017 097.4639 112.6239 0008141 088.1058 272.1111 15.24034755055597
LILACSAT-1
1 42725U 98067ME  18047.09970725  .00020596  00000-0  22033-3 0  9994
2 42725  51.6357 253.1051 0005612 140.4337 219.7068 15.63832507 41538
MAX VALIER SAT
1 42778U 17036P   18047.47280400  .00000735  00000-0  36182-4 0  9999
2 42778  97.4191 109.1052 0013883 127.7447 232.4989 15.21032415 36150
